Location: Chiroubles
(46.1812°N, 4.6660°E)
Time: 15:29:43
(UTC+00:00)

ISS - Pass Details

Date: 05 November 2020
Orbit: 418 x 420 km, 51.6° (Epoch: 30 November)

Event Time Altitude Azimuth Distance (km) Brightness Sun altitude
Exits shadow 04:10:14 29° 41° (NE) 802 -2.0 -24.2°
Drops below altitude 10° 04:12:31 10° 76° (ENE) 1,506 0.1 -23.8°
Sets 04:14:51 0° 87° (E) 2,408 1.6 -23.4°
